Погода Красная Гора

Погода Красная Гора : погода сейчас, прогноз погоды и архив. Всё, что Вы хотите узнать о погоде Красная Гора!

Хотите узнать прогноз погоды Красная Гора? Тогда Вам сюда: Погода Красная Гора

Поиск расширенной информации на нашем сайте:

Другие новости

Новости СМИ2

Главная страница сайта

Новости сайта

03.07.2017

Напоминаем, что на нашем специализированном сайте Метеоцентр.Азия вы можете получить высокодетализированные автоматические прогнозы погоды по пунктам России, СНГ и мира в авиационном формате (включающие направление и скорость ветра, видимость, явления погоды, количество и форму облачности, нижнюю и верхнюю границу облачности).


Погода Красная Гора - сегодня

Время (UTC), дата Ветер
(°,м/с) 
Видим.   Явления Облачность Т
(°С)
Тd
(°С)
f(%) Тe
(°С)
Pmin
(гПа)
dP
(гПа)
Po
(мм)
O2
(г/м3)
Тmin Tmax R s Состояние
почвы
21 16.10.18 120 (ЮВ) 4000 м  дымка  ясно 
+8.6 +7.1 90 +10  1027.3  757  294           
00 17.10.18 120 (ЮВ) 4000 м  дымка  ясно 
+7.1 +6.1 93 +8  1027.2  -0.1  757  296           
09 17.10.18 180 (Ю) 10 км    ясно 
+18.5 +9.9 57 +21  1027.2  0.4  757  284           
12 17.10.18 190 (Ю) 10 км    ясно 
+22.5 +9.1 42 +23  1026.1  -0.8  757  280           
15 17.10.18 240 (ЮЗ) 10 км    ясно 
+17.7 +10 61 +20  1025.8  -0.7  756  284           
21 17.10.18 тихо ()   4000 м  дымка  ясно 
+6.5 +5.6 94 +7  1026.8  0.2  756  297           
00 18.10.18 тихо ()   4000 м  дымка  ясно 
+4.7 +4 95 +5  1026.6  -0.2  756  299           
09 18.10.18 140 (ЮВ) 10 км  {туман}  ясно 
+18.5 +9.6 56 +21  1024.3  -0.5  755  283           
12 18.10.18 130 (ЮВ) 10 км  {туман}  ясно 
+22.3 +9.3 43 +22  1022.3  -1.7  754  279           
15 18.10.18 тихо ()   10 км    ясно 
+19.1 +9 52 +19  1020.8  -1.6  753  282           
21 18.10.18 тихо ()   4000 м  дымка  ясно 
+9 +7.7 92 +9  1020.6  -0.2  752  292           
00 19.10.18 120 (ЮВ) 4000 м  дымка  ясно 
+8.8 +8 95 +10  1019.7  -0.9  751  292           
09 19.10.18 тихо ()   10 км  {туман}  ясно верхняя 
[Ci fib]
+16 +9.7 66 +17  1018.2  -0.2  750  284           
15 19.10.18 270 (З) 10 км    3/0 верхняя 
[Ci fib]
+16.9 +6.3 50 +18  1017.1  -0.2  750  283           
21 19.10.18 340 (С) 4000 м  дымка  ясно 
+8.8 +7.3 90 +10  1019.3  1.2  751  292           
00 20.10.18 330 (СЗ) 4000 м  дымка  ясно 
+7.9 +6.8 93 +8  1020.1  0.7  752  293           
09 20.10.18 320 (СЗ) 10 км    8/8 600 м 
[Sc]
+9.5 +5.8 78 +11  1022.2  0.9  753  292           
12 20.10.18 140 (ЮВ) 10 км    3/3 600 м 
[Sc]
+12.9 +4.1 55 +14  1021.2  -0.9  752  289           
15 20.10.18 340 (С) 10 км    3/0 средняя 
[Ac trans]
+10.2 +3.1 61 +10  1021.1  -0.2  752  292           
21 20.10.18 330 (СЗ) 10 км    8/0 средняя 
[Ac trans]
+4.7 +2.2 84 +6  1022.5  0.6  753  298           
09 21.10.18 010 (С) 10 км    ясно 
+9.9 +3 62 +10  1025.5  1.3  756  293           
12 21.10.18 030 (СВ) 10 км    3/3 1000 м 
[Cu med, cong]
+11.1 +1.4 51 +11  1025  -0.4  755  292           
15 21.10.18 020 (С) 10 км    ясно 
+8.2 -0.5 54 +9  1025.7  0.5  756  296           
21 21.10.18 010 (С) 4000 м  дымка  ясно 
+0 -1.2 92 +1  1027.8  0.4  757  305           
00 22.10.18 тихо ()   4000 м  дымка  ясно 
-3.3 -4.1 94 -3  1027.9  -0.2  757  309           
Время (UTC), дата Ветер
(°,м/с) 
Видим.   Явления Облачность Т
(°С)
Тd
(°С)
f(%) Тe
(°С)
Pmin
(гПа)
dP
(гПа)
Po
(мм)
O2
(г/м3)
Тmin Tmax R s Состояние
почвы

Для получения пояснительной информации подведите курсор к названию столбца.

ПОГОДА Красная Гора - архив

Всё, что Вы хотите узнать о погоде Красная Гора - удобно и подробно!

Выберите нужную дату (начиная с 1 января 2015* года) и нажмите кнопку "Найти".
Будут отображены архивные сводки погоды по пункту Красная Гора, начиная с указанной даты.


Отображать данные в формате CSV (для использования в таблицах Excel)


Внимание! Наш архив погоды предназначен исключительно для личного некоммерческого использования в познавательных целях. Если Вам необходимы официальные справки о состоянии погоды (для производственных, юридических, коммерческих и т.п. целей), обращайтесь в органы Росгидромета.

*Примечание: данная дата относится к архиву по метеостанциям СССР (Россия, СНГ, Балтия).
Архив по метеостанциям Зарубежной Европы и Азии (кроме Китая) хранится 10 дней, по другим регионам земного шара (Китай, Африка, Америка, Австралия, Океания) - 1 день.

Красная Гора - район местоположения метеостанции


Название, широта, долгота, высота метеостанции:
Красная Гора 53°ш. 31.6°д. 148 м над ур. моря [Российская Федерация]

Дополнительная информация

В oтличие oт бoльшинства пoгoдных сайтoв мы публикуем пoдрoбную метеoинфoрмацию в детальнoм прoфессиoнальнoм фoрмате.

Характеристики температуры и влажнoсти вoздуха измеряются на высoте 2 м в тени вдали oт зданий и деревьев.
Скoрoсть ветра измеряется на высoте 10 м (на урoвне рoста челoвека скoрoсть ветра ниже в 1.5-2 раза). Если метеoстанция нахoдится в гoрoде или в лесу, тo скoрoсть ветра занижена на 2-4 м/с пo сравнению с oткрытым местoм. Скoрoсть ветра над акватoриями крупных рек и oзёр, а также на вершинах хoлмoв на 2-5 м/с выше, чем в oбычных услoвиях.
Атмoсфернoе давление в разных тoчках местнoсти мoжет значительнo oтличаться oт давления на метеoстанции, в зависимoсти oт услoвий рельефа (при пoдъёме на 10 м давление пoнижается примернo на 1 мм рт.ст.).